College Park, MD

8:37 AM EST on December 06, 2019 (GMT -0500)
College Park

Weather History for KCGS - October, 2019

Change the Weather History Date:

Tuesday, October 22, 2019

  Actual Average Record
Temperature  
Mean Temperature 58 °F -  
Max Temperature 61 °F 67 °F 85 °F (1979)
Min Temperature 55 °F 43 °F 26 °F (1974)
Degree Days  
Heating Degree Days 6    
Growing Degree Days 8 (Base 50)    
Moisture  
Dew Point 55 °F    
Average Humidity 87    
Maximum Humidity 94    
Minimum Humidity 74    
Precipitation  
Precipitation 0.00 in - - ()
Sea Level Pressure  
Sea Level Pressure 29.93 in    
Wind  
Wind Speed 3 mph (SSE)    
Max Wind Speed 8 mph    
Max Gust Speed -    
Visibility 8 miles    
Events      
Averages and records for this station are not official NWS values.
T = Trace of Precipitation, MM = Missing Value Source: NWS Daily Summary

Daily Weather History Graph

Daily Weather History Graph

Search for Another Location

Airport or City:

Astronomy

Oct. 22, 2019 Rise Set
Actual Time 7:24 AM EDT 6:19 PM EDT
Civil Twilight 6:56 AM EDT 6:46 PM EDT
Nautical Twilight 6:25 AM EDT 7:17 PM EDT
Astronomical Twilight 5:54 AM EDT 7:48 PM EDT
Moon 12:35 AM EDT (10/22) 3:23 PM EDT (10/22)
Length of Visible Light 11h 49m
Length of Day
10h 55m
Last Quarter, 37% of the Moon is Illuminated
Oct 22
Last Quarter
Oct 27
New
Nov 4
First Quarter
Nov 12
Full
Nov 19
Last Quarter

Hourly Weather History & Observations

Time (EDT) Temp. Dew Point Humidity Pressure Visibility Wind Dir Wind Speed Gust Speed Precip Events Conditions
12:03 AM 58.5 °F 50.2 °F 74% 30.07 in 10.0 mi SE 4.6 mph - N/A   Overcast
12:23 AM 58.5 °F 50.5 °F 75% 30.07 in 10.0 mi SSE 3.5 mph - N/A   Overcast
12:43 AM 58.3 °F 50.9 °F 76% 30.07 in 10.0 mi Calm Calm - N/A   Overcast
1:03 AM 58.5 °F 50.9 °F 76% 30.07 in 10.0 mi SSE 4.6 mph - N/A   Overcast
1:23 AM 58.5 °F 50.9 °F 76% 30.07 in 10.0 mi South 3.5 mph - N/A   Overcast
1:43 AM 58.3 °F 50.5 °F 75% 30.07 in 10.0 mi South 3.5 mph - N/A   Overcast
2:03 AM 58.1 °F 50.4 °F 75% 30.07 in 10.0 mi Calm Calm - N/A   Overcast
2:23 AM 58.1 °F 50.4 °F 75% 30.07 in 10.0 mi Calm Calm - N/A   Overcast
2:43 AM 58.1 °F 50.4 °F 75% 30.06 in 10.0 mi Calm Calm - N/A   Overcast
3:03 AM 58.1 °F 50.4 °F 75% 30.05 in 10.0 mi SE 3.5 mph - N/A   Overcast
3:23 AM 58.1 °F 50.4 °F 75% 30.04 in 10.0 mi SE 3.5 mph - N/A   Overcast
3:43 AM 57.7 °F 50.5 °F 77% 30.04 in 10.0 mi SSE 4.6 mph - N/A   Overcast
4:03 AM 57.6 °F 50.9 °F 78% 30.02 in 10.0 mi Calm Calm - N/A   Overcast
4:23 AM 57.2 °F 51.3 °F 81% 30.02 in 5.0 mi Calm Calm - N/A   Overcast
4:43 AM 56.7 °F 52.3 °F 85% 30.02 in 5.0 mi SSE 3.5 mph - N/A   Overcast
5:03 AM 56.7 °F 54.5 °F 92% 30.00 in 5.0 mi Calm Calm - N/A   Overcast
5:23 AM 56.5 °F 54.7 °F 94% 30.01 in 5.0 mi Calm Calm - N/A   Overcast
5:43 AM 56.7 °F 54.9 °F 94% 30.02 in 5.0 mi Calm Calm - N/A   Overcast
6:03 AM 56.7 °F 54.9 °F 94% 30.02 in 2.5 mi Calm Calm - N/A   Overcast
6:23 AM 56.7 °F 54.9 °F 94% 30.00 in 3.0 mi Calm Calm - N/A   Overcast
6:43 AM 56.7 °F 54.9 °F 94% 30.00 in 5.0 mi Calm Calm - N/A   Overcast
7:03 AM 57.0 °F 55.2 °F 94% 29.99 in 5.0 mi East 3.5 mph - N/A   Overcast
7:23 AM 57.2 °F 55.4 °F 94% 29.99 in 5.0 mi SSE 3.5 mph - N/A   Overcast
7:43 AM 57.2 °F 55.4 °F 94% 30.00 in 5.0 mi Calm Calm - N/A   Overcast
8:03 AM 57.4 °F 55.6 °F 94% 30.01 in 3.0 mi Calm Calm - N/A   Overcast
8:23 AM 57.2 °F 55.4 °F 94% 30.00 in 4.0 mi SSE 3.5 mph - N/A   Overcast
8:43 AM 57.4 °F 55.6 °F 94% 30.00 in 10.0 mi South 6.9 mph - N/A   Overcast
9:03 AM 57.6 °F 55.8 °F 94% 30.00 in 10.0 mi SSE 6.9 mph - N/A   Overcast
9:23 AM 57.6 °F 55.8 °F 94% 30.00 in 10.0 mi South 3.5 mph - N/A   Overcast
9:43 AM 58.1 °F 56.1 °F 93% 29.97 in 10.0 mi SE 5.8 mph - N/A   Overcast
10:03 AM 57.7 °F 55.9 °F 94% 29.96 in 10.0 mi SSE 4.6 mph - N/A   Overcast
10:23 AM 58.3 °F 56.3 °F 93% 29.97 in 10.0 mi Calm Calm - N/A   Overcast
10:43 AM 58.3 °F 55.2 °F 90% 29.97 in 10.0 mi South 5.8 mph - N/A   Overcast
11:03 AM 58.3 °F 54.9 °F 88% 29.95 in 10.0 mi SE 5.8 mph - N/A   Overcast
11:23 AM 58.6 °F 54.0 °F 84% 29.95 in 10.0 mi SSE 6.9 mph - N/A   Overcast
11:43 AM 59.0 °F 53.1 °F 81% 29.94 in 10.0 mi SE 8.1 mph - N/A   Overcast
12:03 PM 59.2 °F 52.7 °F 79% 29.92 in 10.0 mi SE 5.8 mph - N/A   Overcast
12:23 PM 60.1 °F 52.3 °F 76% 29.91 in 10.0 mi SSE 5.8 mph - N/A   Overcast
12:43 PM 61.2 °F 52.7 °F 74% 29.90 in 10.0 mi SSE 6.9 mph - N/A   Overcast
1:03 PM 61.2 °F 52.9 °F 74% 29.88 in 10.0 mi SSE 4.6 mph - N/A   Overcast
1:23 PM 61.2 °F 53.6 °F 76% 29.87 in 10.0 mi SSE 5.8 mph - N/A   Overcast
1:43 PM 60.4 °F 53.6 °F 78% 29.85 in 10.0 mi SE 6.9 mph - N/A   Overcast
2:03 PM 60.8 °F 53.6 °F 77% 29.84 in 10.0 mi SE 6.9 mph - N/A   Overcast
2:23 PM 60.8 °F 54.5 °F 80% 29.83 in 10.0 mi SE 3.5 mph - N/A   Overcast
2:43 PM 60.3 °F 55.8 °F 85% 29.81 in 7.0 mi SE 4.6 mph - N/A   Overcast
3:03 PM 60.3 °F 58.3 °F 93% 29.80 in 3.0 mi SSE 5.8 mph - N/A   Overcast
3:23 PM 60.4 °F 58.6 °F 94% 29.80 in 7.0 mi SSE 3.5 mph - N/A   Overcast
3:43 PM 60.6 °F 58.6 °F 93% 29.80 in 3.0 mi SSE 3.5 mph - N/A   Overcast
4:03 PM 60.6 °F 58.6 °F 93% 29.80 in 7.0 mi Calm Calm - N/A   Overcast
4:23 PM 60.8 °F 59.0 °F 94% 29.80 in 3.0 mi Calm Calm - N/A   Overcast
4:43 PM 60.8 °F 59.0 °F 94% 29.82 in 3.0 mi WNW 8.1 mph - N/A   Overcast
5:03 PM 60.1 °F 58.1 °F 93% 29.84 in 2.5 mi WNW 8.1 mph - N/A   Overcast
5:23 PM 59.4 °F 57.4 °F 93% 29.83 in 5.0 mi NNW 4.6 mph - N/A   Overcast
5:43 PM 59.2 °F 57.2 °F 93% 29.83 in 4.0 mi Calm Calm - N/A   Overcast
6:03 PM 59.0 °F 57.2 °F 94% 29.82 in 4.0 mi Calm Calm - N/A   Overcast
6:23 PM 58.6 °F 56.8 °F 94% 29.81 in 7.0 mi Calm Calm - N/A   Overcast
6:43 PM 58.6 °F 56.7 °F 93% 29.80 in 10.0 mi Calm Calm - N/A   Overcast
7:03 PM 58.5 °F 56.7 °F 94% 29.81 in 10.0 mi Calm Calm - N/A   Overcast
7:23 PM 58.6 °F 56.8 °F 94% 29.81 in 10.0 mi Calm Calm - N/A   Overcast
7:43 PM 58.6 °F 56.7 °F 93% 29.82 in 10.0 mi Calm Calm - N/A   Overcast
8:03 PM - - N/A% 29.84 in 10.0 mi WNW 3.5 mph - N/A   Overcast
8:23 PM - - N/A% 29.84 in 10.0 mi Calm Calm - N/A   Overcast
8:43 PM - - N/A% 29.84 in 10.0 mi WNW 4.6 mph - N/A   Mostly Cloudy
9:03 PM 57.9 °F 55.9 °F 93% 29.84 in 10.0 mi Calm Calm - N/A   Mostly Cloudy
9:23 PM 58.3 °F 56.5 °F 94% 29.85 in 10.0 mi Calm Calm - N/A   Overcast
9:43 PM 58.5 °F 56.5 °F 93% 29.86 in 10.0 mi Calm Calm - N/A   Overcast
10:03 PM 58.5 °F 56.7 °F 94% 29.87 in 10.0 mi Calm Calm - N/A   Overcast
10:23 PM 58.3 °F 56.5 °F 94% 29.86 in 10.0 mi Calm Calm - N/A   Overcast
10:43 PM 57.7 °F 55.9 °F 94% 29.86 in 10.0 mi Calm Calm - N/A   Mostly Cloudy
11:23 PM 56.3 °F 54.5 °F 94% 29.86 in 10.0 mi Calm Calm - N/A   Scattered Clouds
11:43 PM 55.6 °F 53.8 °F 94% 29.86 in 7.0 mi Calm Calm - N/A   Clear